Weather in Goynuk

Turkey     36°40′10″N   30°32′50″E
temp.,
°C
wind,
m/s
gust,
m/s
humid.,
%
clouds,
%
prec.,
mm/h
press.,
hPa
HPBL,
m
26 february, fri
fri2600:00+7wnw33580 0.0 102788
03:00+7wnw33500 0.0 102658
06:00+7wnw22440 0.0 102651
09:00+10nnw11400 0.0 102554
12:00+14e21370 0.0 1025445
15:00+15e22400 0.0 1022629
18:00+14se02520 0.0 102185
21:00+10nw22580 0.0 102147
27 february, sat
sat2700:00+9wnw11520 0.0 102140
03:00+8nw11530 0.0 102040
06:00+7nw11500 0.0 101943
09:00+10n11450 0.0 101956
12:00+13ese21440 0.0 1018430
15:00+14ese31490 0.0 1016488
18:00+11ese11630 0.0 1015167
21:00+8n11770 0.0 101646
28 february, sun
sun2800:00+8nw11710 0.0 101645
03:00+7wnw11650 0.0 101542
06:00+7wnw11580 0.0 101538
09:00+10nne01500 0.0 101660
12:00+13e31530 0.0 1015595
15:00+13ese32630 0.1 1014681
18:00+11ese228225 0.4 1014269
21:00+9nne119241 0.8 1016117
1 march, mon
mon100:00+9n2284100 0.4 1017140
03:00+8nne238599 0.7 1017206
06:00+7n3589100 2.4 1018351
09:00+7nnw346884 2.6 1019397
12:00+10nne44490 0.0 10191055
15:00+12n45410 0.0 10181494
18:00+10n56420 0.0 10181178
21:00+6nw34510 0.0 1021160
2 march, tue
tue200:00+5nw45470 0.0 1022181
03:00+4nw45490 0.0 1022193
06:00+3nw44530 0.0 1022164
09:00+5nnw45460 0.0 1023405
12:00+9n45330 0.0 10231217
15:00+10n56330 0.0 10221534
18:00+8n45410 0.0 10221195
21:00+4nnw47530 0.1 1023394